Stations météo

réclame
Mon MeteoGroup
Ajaccio, France (7761): Température de l'air & dewpoint: 29.07.2020 19:00:00 - 04.08.2020 19:00:00 (CEST)Ajaccio, France (7761): Température de l'air 5cm: 29.07.2020 19:00:00 - 04.08.2020 19:00:00 (CEST)Ajaccio, France (7761): Température de l'air -20cm & Température de l'air -100cm: 29.07.2020 19:00:00 - 04.08.2020 19:00:00 (CEST)Ajaccio, France (7761): Vitesse du vent & gusts: 29.07.2020 19:00:00 - 04.08.2020 19:00:00 (CEST)Ajaccio, France (7761): Direction du vent: 29.07.2020 19:00:00 - 04.08.2020 19:00:00 (CEST)Ajaccio, France (7761): reduced air pressure: 29.07.2020 19:00:00 - 04.08.2020 19:00:00 (CEST)Ajaccio, France (7761): visibility: 29.07.2020 19:00:00 - 04.08.2020 19:00:00 (CEST)Ajaccio, France (7761): Ensoleillement: 29.07.2020 19:00:00 - 04.08.2020 19:00:00 (CEST)Ajaccio, France (7761): Quantités de précipitations: 29.07.2020 19:00:00 - 04.08.2020 19:00:00 (CEST)
Date & Time tt [°C] td [°C] tt 5cm [°C] tt -20cm [°C] tt -100cm [°C] ff [km/h] ff [knt] fx [km/h] fx [knt] dd ppp [hPa] vv [km] sd [min] rr [mm]
04.08.2020 19:00:00 25,4 16,3 28,6 32,9 29,4 16 8 25 14 SSW 1008,4 20 11 0,0
04.08.2020 18:00:00 25,5 16,1 28,4 32,6 29,4 15 8 29 16 SW 1008,3 20 60 0,0
04.08.2020 17:00:00 25,9 14,7 29,1 32,3 29,4 17 9 29 16 SSW 1008,3 40 60 0,0
04.08.2020 16:00:00 26,0 14,5 30,9 32,2 29,4 18 10 29 16 SSW 1008,2 34 60 0,0
04.08.2020 15:00:00 26,1 13,6 33,5 32,0 29,4 19 10 31 17 SW 1008,3 32 60 0,0
04.08.2020 14:00:00 26,1 14,2 33,9 32,0 29,4 19 11 32 17 SW 1008,3 33 60 0,0
04.08.2020 13:00:00 25,9 13,4 34,1 32,1 29,4 19 10 37 20 SW 1007,9 34 60 0,0
04.08.2020 12:00:00 25,4 14,2 34,0 32,2 29,4 24 13 33 18 SW 1008,0 38 60 0,0
04.08.2020 11:00:00 25,4 14,2 32,9 32,3 29,4 19 10 32 18 SW 1006,9 20 60 0,0
04.08.2020 10:00:00 25,0 14,2 24,6 32,6 29,4 18 10 27 15 SW 1007,0 20 31 0,0
04.08.2020 09:00:00 23,1 13,8 21,8 32,7 29,4 9 5 38 21 NW 1007,2 20 12 0,0
04.08.2020 08:00:00 20,2 13,9 18,9 32,9 29,4 6 3 13 7 NNE 1006,9 20 0 0,0
04.08.2020 07:00:00 19,1 13,5 18,2 33,0 29,4 7 4 11 6 ENE 1006,4 43 0 0,0
04.08.2020 06:00:00 21,0 12,7 19,7 33,2 29,4 2 1 24 13 NNE 1006,5 42 0 0,0
04.08.2020 05:00:00 22,9 13,7 21,7 33,4 29,4 18 10 26 14 W 1006,6 36 0 0,0
04.08.2020 04:00:00 23,2 13,1 21,8 33,5 29,4 16 9 27 15 W 1006,9 42 0 0,0
04.08.2020 03:00:00 23,4 14,4 22,3 33,7 29,4 19 10 29 16 W 1006,9 33 0 0,0
04.08.2020 02:00:00 24,0 15,5 22,8 33,8 29,4 14 8 36 19 W 1007,4 30 0 0,0
04.08.2020 01:00:00 24,6 14,1 21,3 33,9 29,4 21 11 44 24 W 1007,6 40 0 0,0
04.08.2020 00:00:00 21,9 16,2 20,3 33,9 29,4 10 5 37 20 W 1007,8 36 0 0,0
03.08.2020 23:00:00 24,4 16,1 23,2 33,9 29,4 12 7 33 18 W 1007,8 32 0 0,0
03.08.2020 22:00:00 24,7 16,4 23,8 33,8 29,4 13 7 34 18 W 1008,0 34 0 0,0
03.08.2020 21:00:00 24,7 17,2 24,1 33,7 29,4 19 10 33 18 W 1007,8 35 8 0,0
03.08.2020 20:00:00 25,6 17,8 26,2 33,5 29,4 23 12 48 26 W 1007,9 31 52 0,0
03.08.2020 19:00:00 25,6 18,3 27,0 33,4 29,4 20 11 34 18 SW 1007,9 20 51 0,0
03.08.2020 18:00:00 26,9 19,0 28,8 33,2 29,3 22 12 39 21 SW 1008,0 20 60 0,0
03.08.2020 17:00:00 27,5 19,6 30,2 33,2 29,3 27 15 49 26 WSW 1008,2 20 60 0,0
03.08.2020 16:00:00 27,6 19,4 30,7 33,1 29,4 33 18 45 24 WSW 1008,4 18 58 0,0
03.08.2020 15:00:00 28,5 20,0 31,2 33,1 29,3 23 12 34 18 SW 1008,6 19 42 0,0
03.08.2020 14:00:00 27,4 19,7 30,7 33,1 29,3 18 10 36 20 SW 1009,3 19 1 0,0
03.08.2020 13:00:00 27,2 20,8 31,0 33,2 29,3 24 13 34 19 WSW 1009,8 19 20 0,0
03.08.2020 12:00:00 28,6 21,1 32,0 33,4 29,3 20 11 27 15 SW 1009,1 20 33 0,0
03.08.2020 11:00:00 27,1 21,4 28,7 33,5 29,3 11 6 20 11 SW 1009,2 19 8 0,0
03.08.2020 10:00:00 26,0 20,1 26,1 33,7 29,3 5 3 15 8 NNE 1009,2 20 0 0,0
03.08.2020 09:00:00 24,5 19,3 22,8 33,9 29,3 8 4 15 8 NNE 1009,5 19 0 0,0
03.08.2020 08:00:00 21,9 18,3 21,2 34,0 29,3 11 6 18 10 NE 1009,4 20 6 0,0
03.08.2020 07:00:00 21,1 18,5 20,5 34,3 29,3 9 5 17 9 NE 1009,2 21 3 0,0
03.08.2020 06:00:00 21,4 18,6 20,5 34,4 29,3 10 5 20 11 NE 1009,3 20 0 0,0
03.08.2020 05:00:00 21,4 19,1 20,9 34,6 29,3 11 6 16 9 NE 1009,2 19 0 0,0
03.08.2020 04:00:00 21,7 19,8 21,1 34,7 29,3 9 5 13 7 NE 1009,6 18 0 0,0
03.08.2020 03:00:00 22,7 20,2 22,0 34,8 29,3 8 4 10 5 NE 1010,0 16 0 0,0
03.08.2020 02:00:00 23,6 20,9 22,5 34,9 29,3 4 2 9 5 ESE 1010,2 15 0 0,0
03.08.2020 01:00:00 24,2 21,3 23,4 34,9 29,3 6 4 10 6 NE 1010,4 18 0 0,0
03.08.2020 00:00:00 24,7 21,8 23,9 34,9 29,3 6 3 10 5 NE 1010,6 20 0 0,0
02.08.2020 23:00:00 25,2 21,7 24,3 34,9 29,3 4 2 10 5 E 1010,7 22 0 0,0
02.08.2020 22:00:00 25,5 21,8 24,3 34,7 29,3 5 3 11 6 SE 1010,1 20 0 0,0
02.08.2020 21:00:00 26,1 22,0 25,7 34,5 29,3 10 5 20 11 SW 1009,8 26 6 0,0
02.08.2020 20:00:00 27,4 22,8 28,5 34,3 29,3 13 7 23 13 SW 1009,9 26 60 0,0
02.08.2020 19:00:00 28,6 23,1 32,2 34,0 29,3 14 7 25 13 SW 1009,9 20 60 0,0
02.08.2020 18:00:00 29,8 23,7 32,7 33,7 29,3 16 9 26 14 SSW 1010,2 20 60 0,0
02.08.2020 17:00:00 30,1 23,8 32,6 33,5 29,3 18 10 24 13 SSW 1010,2 20 60 0,0
02.08.2020 16:00:00 30,6 23,3 35,5 33,2 29,2 17 9 31 17 SSW 1010,5 19 60 0,0
02.08.2020 15:00:00 30,3 24,2 38,2 33,1 29,3 21 11 31 17 SW 1010,8 18 60 0,0
02.08.2020 14:00:00 30,6 25,2 39,4 33,0 29,2 21 11 32 17 SW 1011,0 18 60 0,0
02.08.2020 13:00:00 30,6 24,7 39,3 33,1 29,2 23 12 38 21 SW 1011,1 19 60 0,0
02.08.2020 12:00:00 30,4 23,8 39,0 33,2 29,2 18 10 32 17 SW 1011,1 46 60 0,0
02.08.2020 11:00:00 29,9 21,6 38,3 33,3 29,2 12 7 21 12 WSW 1011,1 20 60 0,0
02.08.2020 10:00:00 30,6 21,4 33,1 33,5 29,2 7 4 13 7 WSW 1011,2 20 60 0,0
02.08.2020 09:00:00 28,1 18,2 27,0 33,7 29,2 6 3 15 8 NNE 1011,5 42 60 0,0
02.08.2020 08:00:00 24,4 15,6 21,2 33,9 29,2 9 5 19 10 NE 1011,5 49 60 0,0
02.08.2020 07:00:00 20,9 15,2 19,4 34,1 29,2 14 8 20 11 NE 1011,6 41 3 0,0
02.08.2020 06:00:00 20,4 15,6 19,4 34,3 29,2 8 5 13 7 NNE 1011,8 40 0 0,0
02.08.2020 05:00:00 21,2 15,5 19,5 34,5 29,2 10 5 13 7 NNE 1011,0 37 0 0,0
02.08.2020 04:00:00 21,2 15,7 19,8 34,6 29,2 6 3 14 8 ENE 1010,3 46 0 0,0
02.08.2020 03:00:00 21,8 16,1 21,0 34,7 29,2 11 6 18 10 NE 1010,6 43 0 0,0
02.08.2020 02:00:00 22,7 16,5 21,6 34,8 29,2 11 6 19 11 NNE 1011,9 48 0 0,0
02.08.2020 01:00:00 23,2 17,6 22,3 34,9 29,2 7 4 15 8 NE 1012,9 39 0 0,0
02.08.2020 00:00:00 23,6 18,7 22,5 34,9 29,2 9 5 13 7 NNE 1013,1 36 0 0,0
01.08.2020 23:00:00 24,5 18,7 23,6 34,9 29,2 6 3 10 6 NE 1013,1 43 0 0,0
01.08.2020 22:00:00 26,2 20,1 25,0 34,7 29,2 3 2 8 5 NNE 1012,6 28 0 0,0
01.08.2020 21:00:00 27,8 21,8 26,4 34,4 29,2 3 1 7 4 WNW 1011,7 47 14 0,0
01.08.2020 20:00:00 29,3 22,0 30,4 34,2 29,2 5 3 16 9 SSW 1011,6 52 60 0,0
01.08.2020 19:00:00 29,7 23,6 31,9 33,9 29,2 13 7 27 14 S 1011,9 41 60 0,0
01.08.2020 18:00:00 30,4 23,3 32,7 33,6 29,2 17 9 24 13 S 1012,1 57 60 0,0
01.08.2020 17:00:00 30,8 24,2 33,4 33,4 29,2 14 7 26 14 S 1012,5 50 60 0,0
01.08.2020 16:00:00 30,7 23,4 33,5 33,1 29,1 20 11 30 16 SSW 1012,8 20 60 0,0
01.08.2020 15:00:00 31,7 23,0 37,6 33,0 29,2 21 11 31 17 SSW 1013,0 60 60 0,0
01.08.2020 14:00:00 31,3 23,4 38,0 33,0 29,2 22 12 29 16 S 1013,4 19 60 0,0
01.08.2020 13:00:00 31,2 23,1 39,2 33,0 29,2 18 10 26 14 SSW 1013,8 60 60 0,0
01.08.2020 12:00:00 30,1 23,0 38,0 33,1 29,1 14 8 21 11 SSW 1014,1 58 60 0,0
01.08.2020 11:00:00 30,0 20,3 38,0 33,3 29,1 15 8 21 11 SW 1014,3 50 60 0,0
01.08.2020 10:00:00 30,6 16,2 34,0 33,5 29,1 7 4 12 6 SW 1014,3 56 60 0,0
01.08.2020 09:00:00 28,3 14,2 26,9 33,7 29,1 8 4 18 10 NE 1014,5 52 60 0,0
01.08.2020 08:00:00 24,3 13,2 19,9 33,9 29,1 10 5 19 11 NE 1014,5 41 57 0,0
01.08.2020 07:00:00 20,0 13,2 18,9 34,1 29,1 14 8 18 10 NE 1014,3 50 0 0,0
01.08.2020 06:00:00 20,9 13,1 19,7 34,3 29,1 6 3 11 6 ENE 1014,3 49 0 0,0
01.08.2020 05:00:00 21,9 13,3 20,6 34,5 29,1 8 4 21 12 ENE 1013,9 54 0 0,0
01.08.2020 04:00:00 21,6 13,5 20,6 34,6 29,1 14 8 22 12 NE 1014,0 54 0 0,0
01.08.2020 03:00:00 21,9 14,0 20,7 34,7 29,1 13 7 20 11 NE 1014,6 53 0 0,0
01.08.2020 02:00:00 21,8 14,7 20,8 34,8 29,1 10 6 14 8 NE 1015,3 46 0 0,0
01.08.2020 01:00:00 23,8 14,8 22,5 34,9 29,1 6 3 16 9 NE 1015,6 45 0 0,0
01.08.2020 00:00:00 26,2 15,0 24,4 34,9 29,1 9 5 19 10 ENE 1015,3 46 0 0,0
31.07.2020 23:00:00 25,9 16,4 25,1 34,8 29,1 11 6 15 8 NE 1014,9 45 0 0,0
31.07.2020 22:00:00 27,3 17,5 25,8 34,6 29,1 10 5 12 7 ENE 1014,8 41 0 0,0
31.07.2020 21:00:00 28,7 20,2 26,1 34,4 29,1 4 2 6 3 SE 1014,5 40 5 0,0
31.07.2020 20:00:00 31,0 19,7 31,6 34,1 29,1 6 3 18 10 W 1014,6 48 60 0,0
31.07.2020 19:00:00 32,0 19,9 34,4 33,8 29,1 10 5 22 12 SSW 1014,8 55 60 0,0
31.07.2020 18:00:00 33,1 19,9 34,9 33,5 29,1 14 8 23 12 S 1014,9 60 60 0,0
31.07.2020 17:00:00 32,8 21,6 36,6 33,2 29,0 16 8 24 13 SSW 1015,2 60 60 0,0
31.07.2020 16:00:00 33,2 21,7 37,4 33,0 29,1 18 10 27 15 SSW 1015,4 56 60 0,0
31.07.2020 15:00:00 33,1 22,8 38,5 32,9 29,1 19 11 29 15 S 1015,5 59 60 0,0
31.07.2020 14:00:00 31,6 24,5 39,1 32,8 29,0 17 9 25 14 SSW 1015,8 60 60 0,0
31.07.2020 13:00:00 30,7 24,1 39,3 32,8 29,1 18 10 23 13 SSW 1016,2 60 60 0,0
31.07.2020 12:00:00 29,6 23,3 39,2 32,9 29,0 13 7 23 13 WSW 1016,4 19 60 0,0
31.07.2020 11:00:00 29,5 22,2 38,4 33,1 29,0 11 6 17 9 SW 1016,6 60 60 0,0
31.07.2020 10:00:00 29,2 17,1 34,7 33,2 29,0 7 4 13 7 SW 1016,7 45 60 0,0
31.07.2020 09:00:00 28,6 14,4 26,2 33,5 29,0 4 2 9 5 NNE 1016,9 48 60 0,0
31.07.2020 08:00:00 23,1 14,9 21,6 33,7 29,0 5 3 10 5 NE 1016,7 19 60 0,0
31.07.2020 07:00:00 21,2 13,6 20,0 33,9 29,0 4 2 13 7 NE 1016,5 46 5 0,0
31.07.2020 06:00:00 20,8 14,0 19,5 34,1 29,0 10 5 17 9 NE 1016,1 56 0 0,0
31.07.2020 05:00:00 21,0 14,6 20,1 34,2 29,0 8 4 15 8 NE 1016,2 53 0 0,0
31.07.2020 04:00:00 21,5 15,3 20,4 34,3 29,0 8 4 14 7 NE 1016,4 40 0 0,0
31.07.2020 03:00:00 21,8 16,3 20,9 34,5 29,0 7 4 9 5 ENE 1016,7 33 0 0,0
31.07.2020 02:00:00 23,6 17,3 22,1 34,6 29,0 8 4 14 8 ENE 1016,8 40 0 0,0
31.07.2020 01:00:00 24,8 18,5 23,6 34,6 29,0 7 4 16 9 NE 1016,7 36 0 0,0
31.07.2020 00:00:00 25,2 21,1 24,5 34,6 29,0 9 5 15 8 ENE 1016,6 28 0 0,0
30.07.2020 23:00:00 25,8 23,5 24,8 34,5 29,0 8 4 14 8 NE 1016,8 15 0 0,0
30.07.2020 22:00:00 26,4 23,9 25,2 34,4 29,0 8 4 14 8 NE 1017,0 14 0 0,0
30.07.2020 21:00:00 27,0 24,8 26,5 34,2 29,0 13 7 34 19 S 1016,9 20 6 0,0
30.07.2020 20:00:00 28,9 25,1 29,1 33,9 29,0 17 9 23 12 SSW 1015,8 24 57 0,0
30.07.2020 19:00:00 30,6 23,3 33,9 33,7 29,0 17 9 26 14 WSW 1015,4 20 53 0,0
30.07.2020 18:00:00 31,6 21,2 33,0 33,4 29,0 5 3 22 12 NNE 1016,0 44 27 0,0
30.07.2020 17:00:00 30,4 23,1 33,3 33,1 29,0 16 9 33 18 SSW 1016,5 30 41 0,0
30.07.2020 16:00:00 31,8 22,8 37,1 32,9 29,0 18 10 29 15 WSW 1016,2 58 60 0,0
30.07.2020 15:00:00 33,5 21,3 39,4 32,7 29,0 11 6 24 13 SW 1017,0 59 60 0,0
30.07.2020 14:00:00 32,3 22,1 38,7 32,7 29,0 17 9 30 16 SSW 1017,8 60 60 0,0
30.07.2020 13:00:00 31,7 23,0 39,8 32,7 28,9 22 12 30 16 SW 1017,7 60 60 0,0
30.07.2020 12:00:00 30,3 22,7 39,1 32,8 29,0 14 8 21 12 SW 1017,5 60 60 0,0
30.07.2020 11:00:00 29,4 21,4 38,5 33,0 29,0 11 6 26 14 SW 1017,3 60 60 0,0
30.07.2020 10:00:00 30,2 17,3 32,8 33,2 28,9 7 4 11 6 SW 1016,9 48 60 0,0
30.07.2020 09:00:00 27,7 14,3 25,6 33,4 28,9 6 4 16 9 NE 1017,1 17 60 0,0
30.07.2020 08:00:00 22,9 14,5 20,6 33,6 28,9 11 6 19 10 NE 1017,1 19 60 0,0
30.07.2020 07:00:00 20,3 13,7 18,9 33,8 28,9 12 6 17 9 NE 1017,1 42 4 0,0
30.07.2020 06:00:00 19,6 14,4 18,9 34,0 28,9 14 8 20 11 NE 1016,7 20 0 0,0
30.07.2020 05:00:00 20,0 15,2 19,0 34,1 28,9 11 6 16 8 NE 1016,5 44 0 0,0
30.07.2020 04:00:00 20,4 15,2 19,4 34,3 28,9 8 4 10 6 NNE 1016,3 40 0 0,0
30.07.2020 03:00:00 22,5 15,1 20,9 34,4 28,9 5 3 16 9 E 1016,1 49 0 0,0
30.07.2020 02:00:00 22,9 15,7 22,0 34,5 28,9 10 5 19 10 NE 1015,9 49 0 0,0
30.07.2020 01:00:00 22,9 16,7 22,2 34,6 28,9 12 6 18 10 NE 1015,8 45 0 0,0
30.07.2020 00:00:00 23,7 17,7 23,1 34,5 28,9 13 7 18 10 NE 1015,8 45 0 0,0
29.07.2020 23:00:00 24,8 19,6 24,0 34,5 28,9 8 5 12 6 ENE 1015,9 37 0 0,0
29.07.2020 22:00:00 26,5 21,7 24,8 34,3 28,9 8 4 10 6 NE 1015,8 26 0 0,0
29.07.2020 21:00:00 26,7 23,2 26,0 34,1 28,9 4 2 11 6 SW 1015,3 43 8 0,0
29.07.2020 20:00:00 28,1 24,7 29,3 33,8 28,9 6 4 15 8 WSW 1015,1 45 60 0,0
29.07.2020 19:00:00 29,7 23,6 33,2 33,6 28,9 12 6 23 12 SSW 1015,0 50 60 0,0

tt = Température de l'air
td = dewpoint
tt 5cm = Température de l'air 5cm
tt -20cm = Température de l'air -20cm
tt -100cm = Température de l'air -100cm
ff = Vitesse du vent
fx = gusts
dd = Direction du vent
ppp = reduced air pressure
vv = visibility
sd = Ensoleillement
rr = Quantités de précipitations

stations d'obs. à proximité